This demonstration page uses our WeatherBlox Daily Observations layout. Learn more.

Left ArrowRight Arrow

36.19886, -115.1175

Hourly Observations for March 3, 2017

Temp ( °F °C ) Dew Point ( °F °C ) Humidity (%) Winds ( mph kmh ) Pressure ( in mb ) Visibility ( mi km ) Precip ( " mm )
12:53 am 00:53 Clear 48 8.9 20 -6.7 33 33 W 3 6 30.27 1025 10 16 N/A
1:53 am 01:53 Clear 48 8.9 21 -6.1 34 34 W 6 9 30.25 1024 10 16 N/A
2:53 am 02:53 Clear 45 7.2 21 -6.1 39 39 WNW 6 9 30.23 1024 10 16 N/A
3:53 am 03:53 Clear 44 6.7 21 -6.1 40 40 NW 5 7 30.23 1024 10 16 N/A
4:53 am 04:53 Clear 43 6.1 22 -5.6 43 43 N 3 6 30.24 1024 10 16 N/A
5:53 am 05:53 Clear 43 6.1 21 -6.1 42 42 N 7 11 30.23 1024 10 16 N/A
6:53 am 06:53 Sunny 44 6.7 23 -5 43 43 WNW 6 9 30.23 1024 10 16 N/A
7:53 am 07:53 Sunny 51 10.6 23 -5 33 33 N N/A 30.24 1024 10 16 N/A
8:53 am 08:53 Sunny 55 12.8 20 -6.7 25 25 SE 3 6 30.24 1024 10 16 N/A
9:53 am 09:53 Sunny 60 15.6 17 -8.3 19 19 SSE 6 9 30.23 1024 10 16 N/A
10:53 am 10:53 Sunny 63 17.2 13 -10.6 14 14 E 3 6 30.21 1023 10 16 N/A
11:53 am 11:53 Sunny 64 17.8 14 -10 14 14 N N/A 30.17 1022 10 16 N/A
12:53 pm 12:53 Sunny 67 19.4 10 -12.2 11 11 SE 7 11 30.12 1020 10 16 N/A
1:53 pm 13:53 Sunny 68 20 11 -11.7 11 11 ESE 6 9 30.08 1019 10 16 N/A
2:53 pm 14:53 Sunny 69 20.6 12 -11.1 11 11 VRB 7 11 30.05 1018 10 16 N/A
3:53 pm 15:53 Sunny 69 20.6 13 -10.6 11 11 ESE 8 13 30.03 1017 10 16 N/A
4:53 pm 16:53 Sunny 68 20 12 -11.1 11 11 SE 6 9 30.02 1017 10 16 N/A
5:53 pm 17:53 Clear 66 18.9 15 -9.4 14 14 SSE 6 9 30.02 1017 10 16 N/A
6:53 pm 18:53 Clear 64 17.8 16 -8.9 15 15 N N/A 30.03 1017 10 16 N/A
7:53 pm 19:53 Clear 60 15.6 20 -6.7 21 21 WNW 6 9 30.03 1017 10 16 N/A
8:53 pm 20:53 Clear 57 13.9 23 -5 27 27 NNW 3 6 30.03 1017 10 16 N/A
9:53 pm 21:53 Clear 56 13.3 23 -5 28 28 N N/A 30.02 1017 10 16 N/A
10:53 pm 22:53 Clear 54 12.2 25 -3.9 33 33 N N/A 30.01 1016 10 16 N/A
11:53 pm 23:53 Clear 54 12.2 24 -4.4 31 31 SE 5 7 30.00 1016 10 16 N/A

Powered by AerisWeather